Weather in Monreale

Italy     38°04′40″N   13°17′16″E
temp.,
°C
wind,
m/s
gust,
m/s
humid.,
%
clouds,
%
prec.,
mm/h
press.,
hPa
HPBL,
m
20 april, tue
tue2023:00+5ssw339511 0.1 102053
02:00+5s229316 0.1 101933
05:00+6ssw339136 0.0 101954
08:00+9sw24822 0.0 1019328
11:00+13wsw46575 0.0 10191393
14:00+15w464839 0.0 10181833
17:00+14w3453100 0.0 10171479
20:00+8ene1184100 0.1 101832
21 april, wed
wed2123:00+7se2284100 0.0 102019
02:00+7sse227629 0.0 101913
05:00+7se227643 0.0 101814
08:00+10se2269100 0.0 101882
11:00+16ssw2451100 0.0 10181128
14:00+18ssw2449100 0.0 10171625
17:00+16ese2363100 0.5 1016818
20:00+12sse2278100 1.0 101717
22 april, thu
thu2223:00+11s3381100 0.0 101858
02:00+12sse3383100 0.6 101750
05:00+12ese2280100 0.1 101730
08:00+12ese4675100 0.1 1015151
11:00+19sse394490 0.0 10151119
14:00+20sw1343100 0.0 1014830
17:00+15sse3573100 0.7 1014368
20:00+13ese1283100 0.9 101574
23 april, fri
fri2323:00+12e2281100 0.0 101545
02:00+11nne1188100 0.0 101516
05:00+11e4597100 1.1 1014173
08:00+11ene3493100 1.3 1013191
11:00+14ne2374100 0.0 1012292
14:00+16w2267100 0.2 1012812
17:00+12nw1297100 2.6 1011214
20:00+11wsw2298100 12.4 1012121
24 april, sat
sat2423:00+11ssw1295100 0.3 101247
02:00+11w2499100 2.3 1012247
05:00+11nw3899100 1.3 1011916
08:00+11nnw3698100 2.4 1012610
11:00+12nne4798100 1.1 1014879
14:00+11nne469583 1.8 1015589
17:00+13ne468447 0.4 1015709
20:00+10ne239617 0.4 101780